This is the latest recevied weather packets stored in our database for station/object ED5YAL-15. If no packets are shown the sender has not sent any weather packets the latest 10 day(s).
| Time | Temp. | Humidity | Pressure | Rain* | Wind** | Luminosity | Snow |
|---|---|---|---|---|---|---|---|
| 1777927597 | 15° C | 57% | 1017.3 hPa | - | - | - | - |
| 1777926692 | 15° C | 57% | 1017.3 hPa | - | - | - | - |
| 1777925791 | 17.78° C | 57% | 1017.1 hPa | - | - | - | - |
| 1777924911 | 15.56° C | 57% | 1017.1 hPa | - | - | - | - |
| 1777924011 | 15.56° C | 57% | 1016.9 hPa | - | - | - | - |
| 1777923110 | 16.11° C | 57% | 1016.7 hPa | - | - | - | - |
| 1777922209 | 16.11° C | 57% | 1016.5 hPa | - | - | - | - |
| 1777921308 | 16.11° C | 57% | 1016.5 hPa | - | - | - | - |
| 1777920407 | 17.22° C | 57% | 1016.5 hPa | - | - | - | - |
| 1777919506 | 18.33° C | 57% | 1016.5 hPa | - | - | - | - |
| 1777918606 | 18.89° C | 57% | 1016.3 hPa | - | - | - | - |
| 1777917705 | 21.11° C | 56% | 1016.4 hPa | - | - | - | - |
| 1777916851 | 21.11° C | 57% | 1016 hPa | - | - | - | - |
| 1777916804 | 21.11° C | 57% | 1016 hPa | - | - | - | - |
| 1777915905 | 20° C | 57% | 1016.1 hPa | - | - | - | - |
| 1777915001 | 21.67° C | 55% | 1016.1 hPa | - | - | - | - |
| 1777914100 | 23.33° C | 56% | 1016.1 hPa | - | - | - | - |
| 1777913199 | 21.67° C | 58% | 1016 hPa | - | - | - | - |
| 1777912298 | 21.67° C | 57% | 1015.8 hPa | - | - | - | - |
| 1777911397 | 20.56° C | 57% | 1016 hPa | - | - | - | - |
| 1777910496 | 20° C | 58% | 1015.9 hPa | - | - | - | - |
| 1777909596 | 21.67° C | 57% | 1016 hPa | - | - | - | - |
| 1777908695 | 21.67° C | 57% | 1016 hPa | - | - | - | - |
| 1777907794 | 21.67° C | 58% | 1016 hPa | - | - | - | - |
| 1777906893 | 21.67° C | 58% | 1015.7 hPa | - | - | - | - |
* Rain since midnight (hover to see other rain measurements)
** Current wind speed in m/s (hover to see current wind gust speed)